timestamp,surface_pressure_avg,surface_temp_avg,battery_voltage,lat,long
2021-11-01 00:09:01+00:00,253.9247,10.1,12.65,47.84626,-54.09684
2021-11-01 00:19:00+00:00,250.4348,10.1,12.65,47.84626,-54.09684
2021-11-01 00:29:00+00:00,248.8031,10.1,12.65,47.84626,-54.09684
2021-11-01 00:39:00+00:00,241.9964,10.1,12.65,47.84626,-54.09684
2021-11-01 00:49:00+00:00,236.8564,10.09,12.65,47.84626,-54.09684
2021-11-01 00:59:00+00:00,235.9682,10.1,12.65,47.84626,-54.09684
2021-11-01 01:09:00+00:00,231.2331,10.09,12.65,47.84626,-54.09684
2021-11-01 01:19:00+00:00,222.8514,10.09,12.65,47.84626,-54.09684
2021-11-01 01:29:00+00:00,223.6731,10.02,12.65,47.84626,-54.09684
2021-11-01 01:39:00+00:00,227.5013,10.04,12.65,47.84626,-54.09684
2021-11-01 01:49:00+00:00,218.6681,10.05,12.65,47.84626,-54.09684
2021-11-01 01:59:00+00:00,204.2581,10.04,12.65,47.84626,-54.09684
2021-11-01 02:09:00+00:00,204.7948,10.05,12.65,47.84626,-54.09684
2021-11-01 02:19:00+00:00,210.0565,10.06,12.65,47.84626,-54.09684
2021-11-01 02:29:00+00:00,202.8048,10.06,12.65,47.84626,-54.09684
2021-11-01 02:39:00+00:00,202.2448,10.08,12.65,47.84626,-54.09684
2021-11-01 02:49:00+00:00,214.1331,10.08,12.65,47.84626,-54.09684
2021-11-01 02:59:00+00:00,217.3765,10.09,12.65,47.84626,-54.09684
2021-11-01 03:09:00+00:00,217.0764,10.1,12.65,47.84626,-54.09684
2021-11-01 03:19:00+00:00,221.3848,10.1,12.65,47.84626,-54.09684
2021-11-01 03:29:00+00:00,221.2598,10.1,12.65,47.84626,-54.09684
2021-11-01 03:39:00+00:00,217.6497,10.1,12.65,47.84626,-54.09684
2021-11-01 03:49:00+00:00,223.2848,10.1,12.65,47.84626,-54.09684
2021-11-01 03:59:00+00:00,232.5581,10.1,12.65,47.84626,-54.09684
2021-11-01 04:09:00+00:00,232.9031,10.13,12.65,47.84626,-54.09684
2021-11-01 04:19:01+00:00,235.6681,10.13,12.65,47.84626,-54.09684
2021-11-01 04:29:01+00:00,245.5598,10.12,12.65,47.84626,-54.09684
2021-11-01 04:39:01+00:00,248.593,10.12,12.65,47.84626,-54.09684
2021-11-01 04:49:01+00:00,251.5964,10.1,12.65,47.84626,-54.09684
2021-11-01 04:59:01+00:00,258.8197,10.1,12.65,47.84626,-54.09684
2021-11-01 05:09:01+00:00,260.6298,10.1,12.65,47.84626,-54.09684
2021-11-01 05:19:00+00:00,258.1564,10.1,12.65,47.84626,-54.09684
2021-11-01 05:29:00+00:00,260.9298,10.1,12.65,47.84626,-54.09684
2021-11-01 05:39:00+00:00,268.1165,10.1,12.65,47.84626,-54.09684
2021-11-01 05:49:00+00:00,271.1547,10.1,12.65,47.84626,-54.09684
2021-11-01 05:59:00+00:00,275.5247,10.08,12.65,47.84626,-54.09684
2021-11-01 06:09:00+00:00,284.0797,10.09,12.65,47.84626,-54.09684
2021-11-01 06:19:00+00:00,291.8997,10.09,12.65,47.84626,-54.09684
2021-11-01 06:29:00+00:00,299.8014,10.08,12.65,47.84626,-54.09684
2021-11-01 06:39:00+00:00,305.668,10.07,12.65,47.84626,-54.09684
2021-11-01 06:49:00+00:00,310.6248,10.06,12.65,47.84626,-54.09684
2021-11-01 06:59:00+00:00,313.173,10.03,12.65,47.84626,-54.09684
2021-11-01 07:09:00+00:00,316.6397,10.0,12.65,47.84626,-54.09684
2021-11-01 07:19:00+00:00,317.718,10.0,12.65,47.84626,-54.09684
2021-11-01 07:29:00+00:00,323.743,10.0,12.65,47.84626,-54.09684
2021-11-01 07:39:00+00:00,328.3197,10.0,12.65,47.84626,-54.09684
2021-11-01 07:49:00+00:00,330.0414,10.0,12.65,47.84626,-54.09684
2021-11-01 07:59:00+00:00,330.1213,10.0,12.65,47.84626,-54.09684
2021-11-01 08:09:00+00:00,333.4447,10.0,12.65,47.84626,-54.09684
2021-11-01 08:19:00+00:00,333.4564,10.0,12.65,47.84626,-54.09684
2021-11-01 08:29:00+00:00,332.8496,10.0,12.65,47.84626,-54.09684
2021-11-01 08:39:00+00:00,342.8163,10.0,12.65,47.84626,-54.09684
2021-11-01 08:49:00+00:00,346.1146,10.0,12.65,47.84626,-54.09684
2021-11-01 08:59:00+00:00,339.6746,10.0,12.65,47.84626,-54.09684
2021-11-01 09:09:00+00:00,331.9197,10.0,12.65,47.84626,-54.09684
2021-11-01 09:19:00+00:00,331.7896,10.0,12.65,47.84626,-54.09684
2021-11-01 09:29:00+00:00,332.523,10.0,12.65,47.84626,-54.09684
2021-11-01 09:39:00+00:00,326.103,10.0,12.65,47.84626,-54.09684
2021-11-01 09:49:00+00:00,322.8097,10.0,12.65,47.84626,-54.09684
2021-11-01 09:59:00+00:00,325.7997,10.0,12.65,47.84626,-54.09684
2021-11-01 10:09:00+00:00,321.7164,10.0,12.65,47.84626,-54.09684
2021-11-01 10:19:01+00:00,309.0013,10.0,12.65,47.84626,-54.09684
2021-11-01 10:29:01+00:00,306.2347,10.0,12.65,47.84626,-54.09684
2021-11-01 10:39:01+00:00,313.3896,10.0,12.65,47.84626,-54.09684
2021-11-01 10:49:01+00:00,307.9747,9.99,12.65,47.84626,-54.09684
2021-11-01 10:59:01+00:00,296.3197,9.99,12.65,47.84626,-54.09684
2021-11-01 11:09:01+00:00,294.7598,10.0,12.65,47.84626,-54.09684
2021-11-01 11:19:00+00:00,293.7531,10.0,12.65,47.84626,-54.09684
2021-11-01 11:29:00+00:00,281.4547,10.0,12.65,47.84626,-54.09684
2021-11-01 11:39:00+00:00,274.053,10.0,12.65,47.84626,-54.09684
2021-11-01 11:49:00+00:00,277.7231,10.0,12.65,47.84626,-54.09684
2021-11-01 11:59:00+00:00,274.4764,10.0,12.65,47.84626,-54.09684
2021-11-01 12:09:00+00:00,262.4847,10.0,12.65,47.84626,-54.09684
2021-11-01 12:19:00+00:00,257.4914,10.0,12.73,47.84626,-54.09684
2021-11-01 12:29:00+00:00,256.1831,10.0,12.73,47.84626,-54.09684
2021-11-01 12:39:00+00:00,249.3564,10.0,12.73,47.84626,-54.09684
2021-11-01 12:49:00+00:00,241.5197,10.0,12.73,47.84626,-54.09684
2021-11-01 12:59:00+00:00,242.7948,10.0,12.73,47.84626,-54.09684
2021-11-01 13:09:00+00:00,243.4781,9.99,12.73,47.84626,-54.09684
2021-11-01 13:19:00+00:00,237.4731,9.99,12.73,47.84626,-54.09684
2021-11-01 13:29:00+00:00,231.1447,9.99,12.73,47.84626,-54.09684
2021-11-01 13:39:00+00:00,230.1647,9.99,12.73,47.84626,-54.09684
2021-11-01 13:49:00+00:00,228.2564,9.99,12.73,47.84626,-54.09684
2021-11-01 13:59:00+00:00,222.0431,9.99,12.73,47.84626,-54.09684
2021-11-01 14:09:00+00:00,219.4648,10.0,12.73,47.84626,-54.09684
2021-11-01 14:19:00+00:00,223.5481,10.0,12.81,47.84626,-54.09684
2021-11-01 14:29:00+00:00,222.2448,10.0,12.81,47.84626,-54.09684
2021-11-01 14:39:00+00:00,216.2348,10.0,12.81,47.84626,-54.09684
2021-11-01 14:49:00+00:00,218.1931,10.0,12.81,47.84626,-54.09684
2021-11-01 14:59:00+00:00,226.4614,10.0,12.81,47.84626,-54.09684
2021-11-01 15:09:00+00:00,227.3664,10.0,12.81,47.84626,-54.09684
2021-11-01 15:19:00+00:00,226.2297,10.0,12.73,47.84626,-54.09684
2021-11-01 15:29:00+00:00,227.6081,10.0,12.73,47.84626,-54.09684
2021-11-01 15:39:00+00:00,228.8931,10.0,12.73,47.84626,-54.09684
2021-11-01 15:49:00+00:00,227.1948,10.0,12.73,47.84626,-54.09684
2021-11-01 15:59:00+00:00,226.3597,10.0,12.73,47.84626,-54.09684
2021-11-01 16:09:00+00:00,228.7097,10.0,12.73,47.84626,-54.09684
2021-11-01 16:19:00+00:00,231.1215,10.0,12.73,47.84626,-54.09684
2021-11-01 16:29:00+00:00,234.7164,10.0,12.73,47.84626,-54.09684
2021-11-01 16:39:00+00:00,236.2931,10.0,12.73,47.84626,-54.09684
2021-11-01 16:49:00+00:00,238.4114,10.0,12.73,47.84626,-54.09684
2021-11-01 16:59:00+00:00,243.9614,10.0,12.73,47.84626,-54.09684
2021-11-01 17:09:00+00:00,248.138,10.0,12.73,47.84626,-54.09684
2021-11-01 17:19:00+00:00,248.9447,10.0,12.65,47.84626,-54.09684
2021-11-01 17:29:00+00:00,251.4881,10.0,12.65,47.84626,-54.09684
2021-11-01 17:39:00+00:00,260.4014,10.0,12.65,47.84626,-54.09684
2021-11-01 17:49:00+00:00,267.3297,10.0,12.65,47.84626,-54.09684
2021-11-01 17:59:00+00:00,270.3047,10.0,12.65,47.84626,-54.09684
2021-11-01 18:09:00+00:00,274.3447,10.0,12.65,47.84626,-54.09684
2021-11-01 18:19:00+00:00,282.0614,10.0,12.65,47.84626,-54.09684
2021-11-01 18:29:00+00:00,287.748,10.0,12.65,47.84626,-54.09684
2021-11-01 18:39:00+00:00,293.33799999999997,10.0,12.65,47.84626,-54.09684
2021-11-01 18:49:00+00:00,298.1347,10.0,12.65,47.84626,-54.09684
2021-11-01 18:59:00+00:00,304.178,10.0,12.65,47.84626,-54.09684
2021-11-01 19:09:00+00:00,309.2413,10.0,12.65,47.84626,-54.09684
2021-11-01 19:19:00+00:00,316.753,10.0,12.65,47.84626,-54.09684
2021-11-01 19:29:00+00:00,321.3347,10.0,12.65,47.84626,-54.09684
2021-11-01 19:39:00+00:00,325.2814,10.0,12.65,47.84626,-54.09684
2021-11-01 19:49:00+00:00,329.6280000000001,10.0,12.65,47.84626,-54.09684
2021-11-01 19:59:00+00:00,334.4747,10.0,12.65,47.84626,-54.09684
2021-11-01 20:09:00+00:00,337.9012,10.0,12.65,47.84626,-54.09684
2021-11-01 20:19:01+00:00,338.858,10.0,12.65,47.84626,-54.09684
2021-11-01 20:29:01+00:00,341.4246,10.0,12.65,47.84626,-54.09684
2021-11-01 20:39:01+00:00,344.1563,10.0,12.65,47.84626,-54.09684
2021-11-01 20:49:01+00:00,345.6696,10.0,12.65,47.84626,-54.09684
2021-11-01 20:59:01+00:00,348.1296,10.0,12.65,47.84626,-54.09684
2021-11-01 21:09:01+00:00,352.7814,10.0,12.65,47.84626,-54.09684
2021-11-01 21:19:00+00:00,352.1963,10.0,12.65,47.84626,-54.09684
2021-11-01 21:29:00+00:00,353.1629,10.0,12.65,47.84626,-54.09684
2021-11-01 21:39:00+00:00,354.5463,10.0,12.65,47.84626,-54.09684
2021-11-01 21:49:00+00:00,353.2529,10.0,12.65,47.84626,-54.09684
2021-11-01 21:59:00+00:00,348.4095,10.0,12.65,47.84626,-54.09684
2021-11-01 22:09:00+00:00,344.73800000000006,10.0,12.65,47.84626,-54.09684
2021-11-01 22:19:00+00:00,341.9529,10.0,12.65,47.84626,-54.09684
2021-11-01 22:29:00+00:00,338.8414,10.0,12.65,47.84626,-54.09684
2021-11-01 22:39:00+00:00,337.9264,10.0,12.65,47.84626,-54.09684
2021-11-01 22:49:00+00:00,332.9263,10.0,12.65,47.84626,-54.09684
2021-11-01 22:59:00+00:00,325.6163,10.0,12.65,47.84626,-54.09684
2021-11-01 23:09:00+00:00,321.4296,10.0,12.65,47.84626,-54.09684
2021-11-01 23:19:00+00:00,317.898,10.0,12.65,47.84626,-54.09684
2021-11-01 23:29:00+00:00,312.333,10.0,12.65,47.84626,-54.09684
2021-11-01 23:39:00+00:00,302.9863,10.0,12.65,47.84626,-54.09684
2021-11-01 23:49:00+00:00,297.3263,10.0,12.65,47.84626,-54.09684
2021-11-01 23:59:00+00:00,290.8847,10.0,12.65,47.84626,-54.09684
